Volver al catálogo

STARLINK-33625

ActivoComunicacionesVLEO
NORAD 63327·PAYLOAD·🇺🇸 United States

Lanzado Mar 18, 2025 desde Cape Canaveral Space Force Station

Loading…

Próximos Pases (próximas 24 horas)

TLE

ActualizadoSource: CelesTrak SupGP

Época: Sep 15, 2026, 03:03 UTC

1 63327C 25057W   26258.12756944 -.00009635  00000+0 -34888-3 0  2587
2 63327  43.0046  33.3987 0001538 267.9260 227.6767 15.27590939    10

Sigue STARLINK-33625 en tiempo real con AllMySat

Download on the App Store